GW1259 Weather Reports


time (UTC)temp
C
wind
direction
speed
KPH
gust
KPH
rain 1hr
cm
rain 24hr
cm
rain mn
cm
humidity
%
barometer
mb
20260510071557 10 146 0.0 1.6 0.00 0.00 0.00 93 1011.6
20260510070056 10 0 0.0 0.0 0.00 0.00 0.00 94 1011.3
20260510064607 10 0 0.0 0.0 0.00 0.00 0.00 93 1011.1
20260510063057 10 0 0.0 0.0 0.00 0.00 0.00 92 1010.9
20260510061558 10 0 0.0 1.6 0.00 0.00 0.00 92 1011.0
20260510060059 10 0 0.0 1.6 0.00 0.00 0.00 91 1011.2
20260510054557 10 0 0.0 1.6 0.00 0.00 0.00 90 1011.1
20260510053058 11 0 0.0 0.0 0.00 0.00 0.00 91 1011.1
20260510051559 11 0 0.0 0.0 0.00 0.00 0.00 90 1011.1
20260510050100 11 0 0.0 0.0 0.00 0.00 0.00 90 1011.2
20260510044632 11 0 0.0 0.0 0.00 0.00 0.00 90 1011.1
20260510043058 11 0 0.0 0.0 0.00 0.00 0.00 88 1011.0
20260510041557 12 0 0.0 0.0 0.00 0.00 0.00 88 1011.1
20260510040110 12 0 0.0 0.0 0.00 0.00 0.00 88 1011.1
20260510034557 12 0 0.0 0.0 0.00 0.00 0.00 88 1010.7
20260510033100 13 30 0.0 0.0 0.00 0.00 0.00 88 1010.7
20260510031558 13 0 0.0 0.0 0.00 0.00 0.00 88 1010.7
20260510030056 13 0 0.0 0.0 0.00 0.00 0.00 87 1010.6
20260510024602 13 0 0.0 0.0 0.00 0.00 0.00 86 1010.7
20260510023102 13 0 0.0 0.0 0.00 0.00 0.00 84 1010.6
20260510021600 13 0 0.0 0.0 0.00 0.00 0.00 85 1010.3
20260510020057 14 0 0.0 1.6 0.00 0.00 0.00 85 1010.2
20260510014558 15 0 0.0 0.0 0.00 0.00 0.00 82 1009.8
20260510013054 15 0 0.0 0.0 0.00 0.00 0.00 80 1009.8
20260510011558 15 0 0.0 0.0 0.00 0.00 0.00 81 1009.5
20260510010126 15 0 0.0 0.0 0.00 0.00 0.00 77 1009.3
20260510004557 16 0 0.0 0.0 0.00 0.00 0.00 77 1009.0
20260510003054 16 0 0.0 0.0 0.00 0.00 0.00 74 1008.9
20260510001604 17 0 0.0 0.0 0.00 0.00 0.00 73 1008.9
20260510000057 18 164 0.0 0.0 0.00 0.00 0.00 70 1008.8
20260509234618 18 0 0.0 1.6 0.00 0.00 0.00 72 1008.7
20260509233056 20 0 0.0 0.0 0.00 0.00 0.00 70 1008.6
20260509231556 21 0 0.0 0.0 0.00 0.00 0.00 66 1008.3
20260509230057 22 0 0.0 0.0 0.00 0.00 0.00 58 1008.5
20260509224605 22 0 0.0 0.0 0.00 0.00 0.00 53 1008.5
20260509223059 22 0 0.0 0.0 0.00 0.00 0.00 52 1008.4
20260509221600 22 0 0.0 0.0 0.00 0.00 0.00 53 1008.5
20260509220109 22 0 0.0 0.0 0.00 0.00 0.00 54 1008.5
20260509214559 22 0 0.0 0.0 0.00 0.00 0.00 53 1008.6
20260509213053 22 0 0.0 1.6 0.00 0.00 0.00 52 1008.4
20260509211558 22 0 0.0 3.2 0.00 0.00 0.00 52 1008.3
20260509210054 22 0 0.0 3.2 0.00 0.00 0.00 52 1008.4
20260509204606 22 173 1.6 4.8 0.00 0.00 0.00 51 1008.3
20260509203138 22 195 1.6 8.0 0.00 0.00 0.00 50 1008.2
20260509201610 23 148 3.2 8.0 0.00 0.00 0.00 49 1008.2
20260509194557 22 169 3.2 6.4 0.00 0.00 0.00 51 1008.6
20260509193126 22 144 4.8 8.0 0.00 0.00 0.00 53 1008.8
20260509191614 22 147 6.4 11.3 0.00 0.00 0.00 55 1009.0
20260509190057 21 138 1.6 4.8 0.00 0.00 0.00 56 1009.2
20260509184559 21 142 1.6 4.8 0.00 0.00 0.00 60 1009.6
20260509183059 20 158 1.6 3.2 0.00 0.00 0.00 61 1009.7
20260509181600 20 138 0.0 3.2 0.00 0.00 0.00 62 1009.7
20260509180105 20 342 0.0 1.6 0.00 0.00 0.00 61 1010.1
20260509174557 20 0 0.0 3.2 0.00 0.00 0.00 62 1010.4
20260509173102 19 166 1.6 3.2 0.00 0.00 0.00 61 1010.8
20260509171556 19 244 1.6 3.2 0.00 0.00 0.00 61 1011.1
20260509170100 19 249 3.2 6.4 0.00 0.00 0.00 62 1010.8
20260509164607 19 198 3.2 8.0 0.00 0.00 0.00 62 1010.8
20260509163055 18 157 3.2 8.0 0.00 0.00 0.00 61 1011.0
20260509161559 18 140 1.6 6.4 0.00 0.00 0.00 61 1011.1
20260509160057 18 139 3.2 4.8 0.00 0.00 0.00 63 1011.1
20260509154559 18 143 4.8 8.0 0.00 0.00 0.00 61 1011.1
20260509153057 18 140 3.2 8.0 0.00 0.00 0.00 61 1011.1
20260509151605 17 356 0.0 6.4 0.00 0.00 0.00 63 1011.1
20260509150056 17 144 0.0 4.8 0.00 0.00 0.00 65 1011.1
20260509144555 16 145 3.2 6.4 0.00 0.00 0.00 66 1011.3
20260509143055 16 139 1.6 4.8 0.00 0.00 0.00 66 1011.4
20260509141556 15 139 1.6 4.8 0.00 0.00 0.00 66 1011.7
20260509140054 15 147 3.2 6.4 0.00 0.00 0.00 66 1011.8
20260509134558 14 139 3.2 6.4 0.00 0.00 0.00 67 1011.7
20260509133104 13 150 1.6 6.4 0.00 0.00 0.00 69 1011.6
20260509131602 13 149 1.6 3.2 0.00 0.00 0.00 70 1011.7
20260509124557 12 143 1.6 3.2 0.00 0.00 0.00 69 1011.7
20260509123055 12 147 1.6 3.2 0.00 0.00 0.00 71 1011.8
20260509121556 12 152 0.0 1.6 0.00 0.00 0.00 71 1011.8
20260509120100 12 145 0.0 1.6 0.00 0.00 0.00 70 1011.9
20260509114558 12 146 0.0 3.2 0.00 0.00 0.00 71 1011.8
20260509113106 12 148 0.0 1.6 0.00 0.00 0.00 71 1011.5
20260509111604 12 150 0.0 3.2 0.00 0.00 0.00 72 1011.5
20260509110055 11 152 0.0 0.0 0.00 0.00 0.00 69 1011.4
20260509104555 12 0 0.0 0.0 0.00 0.00 0.00 70 1011.2
20260509103101 12 0 0.0 0.0 0.00 0.00 0.00 68 1011.3
20260509101555 12 0 0.0 0.0 0.00 0.00 0.00 67 1011.3
20260509100057 12 0 0.0 0.0 0.00 0.00 0.00 70 1011.3
20260509094555 12 0 0.0 0.0 0.00 0.00 0.00 68 1011.5
20260509093056 12 0 0.0 0.0 0.00 0.00 0.00 67 1011.4
20260509091601 12 0 0.0 0.0 0.00 0.00 0.00 68 1011.6
20260509090057 12 0 0.0 0.0 0.00 0.00 0.00 67 1011.7
20260509084558 12 0 0.0 0.0 0.00 0.00 0.00 67 1011.8
20260509083103 12 0 0.0 3.2 0.00 0.00 0.00 67 1011.9
20260509081604 12 142 0.0 3.2 0.00 0.00 0.00 66 1012.0
20260509080105 12 141 1.6 3.2 0.00 0.00 0.00 67 1012.0
20260509074558 12 143 0.0 1.6 0.00 0.00 0.00 67 1012.1
20260509073054 12 144 0.0 1.6 0.00 0.00 0.00 67 1012.1